Previsão horária em Abejorral

Hoje, 11 Abril, Domingo

Tempo Temperatura Precipitação Vento Pressão Humidade
00:00 +12°C° 0.6 mm 0 m/s 585 mmHg 98%
01:00 +13°C° 0 mm 1 m/s 584 mmHg 98%
02:00 +12°C° 1 mm 0 m/s 584 mmHg 98%
03:00 +12°C° 1 mm 0 m/s 584 mmHg 98%
04:00 +12°C° 1 mm 0 m/s 584 mmHg 98%
05:00 +12°C° 0.5 mm 0 m/s 584 mmHg 98%
06:00 +12°C° 0.5 mm 0 m/s 585 mmHg 97%
07:00 +12°C° 0.5 mm 0 m/s 585 mmHg 97%
08:00 +13°C° 0.6 mm 0 m/s 586 mmHg 94%
09:00 +14°C° 0.6 mm 0 m/s 586 mmHg 90%
10:00 +15°C° 0.6 mm 0 m/s 587 mmHg 87%
11:00 +16°C° 0.2 mm 0 m/s 587 mmHg 80%
12:00 +17°C° 0.2 mm 0 m/s 586 mmHg 74%
13:00 +17°C° 0.2 mm 0 m/s 586 mmHg 68%
14:00 +18°C° 0 mm 0 m/s 586 mmHg 68%
15:00 +18°C° 0 mm 0 m/s 585 mmHg 68%
16:00 +18°C° 0 mm 0 m/s 584 mmHg 68%
17:00 +16°C° 0 mm 0 m/s 584 mmHg 76%
18:00 +15°C° 0 mm 0 m/s 584 mmHg 85%
19:00 +13°C° 0 mm 0 m/s 584 mmHg 93%
20:00 +13°C° 0 mm 0 m/s 584 mmHg 93%
21:00 +13°C° 0 mm 0 m/s 585 mmHg 92%
22:00 +13°C° 0 mm 0 m/s 585 mmHg 91%
23:00 +12°C° 0 mm 0 m/s 585 mmHg 91%

Amanhã, 12 Abril, Segunda-feira

Tempo Temperatura Precipitação Vento Pressão Humidade
00:00 +12°C° 0 mm 0 m/s 584 mmHg 91%
01:00 +12°C° 0 mm 0 m/s 584 mmHg 91%
02:00 +12°C° 0 mm 0 m/s 584 mmHg 91%
03:00 +11°C° 0 mm 0 m/s 584 mmHg 90%
04:00 +12°C° 0 mm 1 m/s 583 mmHg 90%
05:00 +12°C° 0 mm 0 m/s 584 mmHg 87%
06:00 +12°C° 0 mm 0 m/s 585 mmHg 85%
07:00 +13°C° 0 mm 0 m/s 585 mmHg 83%
08:00 +15°C° 0 mm 0 m/s 586 mmHg 74%
09:00 +20°C° 0 mm 1 m/s 587 mmHg 65%
10:00 +22°C° 0 mm 1 m/s 588 mmHg 56%
11:00 +23°C° 0.2 mm 1 m/s 587 mmHg 56%
12:00 +23°C° 0.2 mm 1 m/s 587 mmHg 56%
13:00 +24°C° 0.2 mm 1 m/s 587 mmHg 55%
14:00 +23°C° 0.8 mm 1 m/s 586 mmHg 63%
15:00 +22°C° 0.8 mm 1 m/s 585 mmHg 70%
16:00 +20°C° 0.8 mm 1 m/s 584 mmHg 77%
17:00 +19°C° 1 mm 1 m/s 584 mmHg 83%
18:00 +16°C° 1 mm 1 m/s 584 mmHg 89%
19:00 +15°C° 1 mm 1 m/s 584 mmHg 95%
20:00 +14°C° 0.9 mm 1 m/s 585 mmHg 96%
21:00 +14°C° 0.9 mm 1 m/s 585 mmHg 97%
22:00 +13°C° 0.9 mm 1 m/s 585 mmHg 98%
23:00 +13°C° 0.4 mm 1 m/s 585 mmHg 98%

Depois de amanhã, 13 Abril, Terça-feira

Tempo Temperatura Precipitação Vento Pressão Humidade
00:00 +13°C° 0.4 mm 1 m/s 585 mmHg 98%
01:00 +13°C° 0.4 mm 1 m/s 585 mmHg 98%
02:00 +13°C° 0.5 mm 1 m/s 585 mmHg 98%
03:00 +12°C° 0.5 mm 0 m/s 584 mmHg 98%
04:00 +12°C° 0.5 mm 0 m/s 584 mmHg 98%
05:00 +12°C° 0.8 mm 0 m/s 585 mmHg 98%
06:00 +12°C° 0.8 mm 0 m/s 585 mmHg 98%
07:00 +12°C° 0.8 mm 0 m/s 586 mmHg 98%
08:00 +13°C° 0.7 mm 0 m/s 586 mmHg 97%
09:00 +13°C° 0.7 mm 0 m/s 586 mmHg 96%
10:00 +14°C° 0.7 mm 0 m/s 587 mmHg 95%
11:00 +15°C° 0 mm 0 m/s 586 mmHg 87%
12:00 +18°C° 0 mm 1 m/s 586 mmHg 79%
13:00 +19°C° 0 mm 1 m/s 586 mmHg 71%
14:00 +19°C° 0.1 mm 1 m/s 585 mmHg 72%
15:00 +19°C° 0.1 mm 1 m/s 585 mmHg 73%
16:00 +19°C° 0.1 mm 1 m/s 585 mmHg 74%
17:00 +18°C° 0.1 mm 1 m/s 584 mmHg 81%
18:00 +15°C° 0.1 mm 1 m/s 584 mmHg 88%
19:00 +14°C° 0.1 mm 1 m/s 584 mmHg 95%
20:00 +13°C° 0 mm 1 m/s 585 mmHg 95%
21:00 +13°C° 0 mm 1 m/s 585 mmHg 95%
22:00 +13°C° 0 mm 1 m/s 585 mmHg 94%
23:00 +13°C° 0.1 mm 1 m/s 585 mmHg 95%

14 Abril, Quarta-feira

Tempo Temperatura Precipitação Vento Pressão Humidade
00:00 +12°C° 0.1 mm 1 m/s 585 mmHg 95%
01:00 +11°C° 0.1 mm 0 m/s 585 mmHg 95%
02:00 +11°C° 0 mm 0 m/s 584 mmHg 95%
03:00 +11°C° 0 mm 0 m/s 584 mmHg 95%
04:00 +11°C° 0 mm 0 m/s 584 mmHg 95%
05:00 +11°C° 0 mm 0 m/s 584 mmHg 93%
06:00 +12°C° 0 mm 0 m/s 585 mmHg 91%
07:00 +12°C° 0 mm 0 m/s 586 mmHg 89%
08:00 +15°C° 0 mm 0 m/s 586 mmHg 78%
09:00 +19°C° 0 mm 1 m/s 587 mmHg 68%
10:00 +22°C° 0 mm 1 m/s 588 mmHg 58%
11:00 +22°C° 0.2 mm 1 m/s 588 mmHg 57%
12:00 +23°C° 0.2 mm 1 m/s 587 mmHg 57%
13:00 +24°C° 0.2 mm 1 m/s 587 mmHg 56%
14:00 +23°C° 0.7 mm 1 m/s 586 mmHg 63%
15:00 +22°C° 0.7 mm 1 m/s 585 mmHg 70%
16:00 +21°C° 0.7 mm 1 m/s 585 mmHg 76%
17:00 +19°C° 1 mm 1 m/s 585 mmHg 83%
18:00 +16°C° 1 mm 1 m/s 584 mmHg 90%
19:00 +14°C° 1 mm 1 m/s 584 mmHg 97%
20:00 +14°C° 1 mm 1 m/s 585 mmHg 97%
21:00 +14°C° 1 mm 1 m/s 585 mmHg 98%
22:00 +13°C° 1 mm 1 m/s 585 mmHg 98%
23:00 +13°C° 0.6 mm 1 m/s 585 mmHg 98%

15 Abril, Quinta-feira

Tempo Temperatura Precipitação Vento Pressão Humidade
00:00 +13°C° 0.6 mm 1 m/s 585 mmHg 98%
01:00 +12°C° 0.6 mm 0 m/s 584 mmHg 98%
02:00 +12°C° 0.8 mm 0 m/s 584 mmHg 98%
03:00 +12°C° 0.8 mm 0 m/s 584 mmHg 98%
04:00 +12°C° 0.8 mm 0 m/s 584 mmHg 98%
05:00 +12°C° 0.9 mm 0 m/s 584 mmHg 98%
06:00 +12°C° 0.9 mm 0 m/s 585 mmHg 98%
07:00 +12°C° 0.9 mm 0 m/s 585 mmHg 98%
08:00 +13°C° 0.7 mm 0 m/s 586 mmHg 96%
09:00 +13°C° 0.7 mm 0 m/s 586 mmHg 95%
10:00 +14°C° 0.7 mm 0 m/s 587 mmHg 94%
11:00 +15°C° 0.1 mm 0 m/s 586 mmHg 88%
12:00 +15°C° 0.1 mm 0 m/s 586 mmHg 83%
13:00 +16°C° 0.1 mm 0 m/s 586 mmHg 77%
14:00 +16°C° 0.1 mm 0 m/s 585 mmHg 77%
15:00 +16°C° 0.1 mm 0 m/s 585 mmHg 78%
16:00 +16°C° 0.1 mm 0 m/s 584 mmHg 78%
17:00 +15°C° 0.4 mm 0 m/s 584 mmHg 84%
18:00 +14°C° 0.4 mm 0 m/s 584 mmHg 90%
19:00 +13°C° 0.4 mm 0 m/s 584 mmHg 95%
20:00 +13°C° 0.6 mm 0 m/s 585 mmHg 96%
21:00 +13°C° 0.6 mm 0 m/s 585 mmHg 96%
22:00 +13°C° 0.6 mm 0 m/s 586 mmHg 96%
23:00 +12°C° 0.6 mm 0 m/s 585 mmHg 97%

16 Abril, Sexta-feira

Tempo Temperatura Precipitação Vento Pressão Humidade
00:00 +12°C° 0.6 mm 0 m/s 585 mmHg 97%
01:00 +12°C° 0.6 mm 0 m/s 585 mmHg 98%
02:00 +12°C° 0.2 mm 0 m/s 585 mmHg 98%
03:00 +12°C° 0.2 mm 0 m/s 584 mmHg 98%
04:00 +12°C° 0.2 mm 0 m/s 584 mmHg 98%
05:00 +12°C° 0 mm 0 m/s 585 mmHg 97%
06:00 +12°C° 0 mm 0 m/s 585 mmHg 97%
07:00 +13°C° 0 mm 0 m/s 586 mmHg 96%
08:00 +14°C° 0.1 mm 0 m/s 586 mmHg 88%
09:00 +18°C° 0.1 mm 1 m/s 587 mmHg 79%
10:00 +19°C° 0.1 mm 1 m/s 588 mmHg 70%
11:00 +20°C° 0.3 mm 1 m/s 587 mmHg 68%
12:00 +21°C° 0.3 mm 1 m/s 587 mmHg 65%
13:00 +21°C° 0.3 mm 1 m/s 587 mmHg 63%
14:00 +21°C° 0.2 mm 1 m/s 586 mmHg 68%
15:00 +20°C° 0.2 mm 1 m/s 585 mmHg 73%
16:00 +19°C° 0.2 mm 1 m/s 585 mmHg 77%
17:00 +18°C° 0.3 mm 1 m/s 585 mmHg 83%
18:00 +15°C° 0.3 mm 1 m/s 584 mmHg 89%
19:00 +13°C° 0.3 mm 0 m/s 584 mmHg 95%
20:00 +12°C° 0.3 mm 0 m/s 585 mmHg 96%
21:00 +12°C° 0.3 mm 0 m/s 585 mmHg 96%
22:00 +13°C° 0.3 mm 1 m/s 585 mmHg 96%
23:00 +13°C° 0.3 mm 1 m/s 585 mmHg 97%
Mostrar mais

Necessitamos do seu Consentimento

A Meteoprog e os seus Fornecedores de Serviços podem armazenar e aceder a dados pessoais como cookies, identificadores do dispositivo ou outras tecnologias semelhantes existentes no seu dispositivo e processar estes dados para personalizar conteúdos e anúncios, assim como funcionalidades nas redes sociais e análise de tráfego.

  • Armazenar e/ou aceder a informações no seu dispositivo

    Os cookies, identificadores do dispositivo ou outras informações podem ser armazenados ou acedidos no seu dispositivo, para os fins acima indicados.

  • Anúncios e conteúdos personalizados, medição de anúncios e conteúdos, dados sobre o público-alvo e desenvolvimento de produtos

    Os anúncios e os conteúdos podem ser personalizados com base num perfil. Podem ser adicionados dados adicionais para uma maior personalização dos anúncios e dos conteúdos. A eficácia dos anúncios e dos conteúdos pode ser medida. Podem ser obtidas informações sobre o público que visualizou os anúncios e os conteúdos. Estes dados podem ser usados para desenvolver ou melhorar sistemas, softwares ou a experiência do utilizador.

Ao clicar em "Eu concordo”, permitirá o uso de cookies, identificadores do dispositivo e web beacons mencionados ou outras tecnologias semelhantes. As configurações do navegador do seu dispositivo podem ser alteradas.

Para certos fins, podem ser invocados interesses legítimos ao invés de consentimento. Pode ler mais informação sobre este assunto na nossa Política de Privacidade e Cookies.